Location: Harwich
(41.7160°N, 69.9939°W)
Time: 02:12:22
(UTC+01:00)

Hubble Space Telescope - Visible Passes

Search period start: 01 December 2022 00:00
Search period end: 11 December 2022 00:00
Orbit: 530 x 534 km, 28.5° (Epoch: 30 November)

Date Brightness Start Highest point End Pass type
(mag) Time Alt. Az. Time Alt. Az. Time Alt. Az.
09 Dec 3.4 12:17:34 10° SSW 12:19:24 13° S 12:21:12 10° SSE visible
10 Dec 3.5 10:26:11 10° S 10:26:24 10° S 10:26:38 10° SSE visible
10 Dec 3.4 12:04:50 10° SSW 12:06:37 13° S 12:08:24 10° SSE visible
